RH
18 19 18 18 18 19 18 19 19 18 18 17 19 21 24 24 23 24 24 21 19 18 17 16 16 17 21 22 21 17 17 18 16 17 19 20 19 21 22 21 21 18 18 15 14 19 22 22 24 22 11 11 16 20 17 20 49 62 53 43 41 47 43 42 40 41 37 33 38 38 50 55 47 42 35 38 36 37 41 36 34 32 32 32 31 32 32 32
19 18 17 18 18 19 18 19 19 19 18 17 19 22 24 23 22 23 23 22 19 20 18 16 17 17 20 20 18 16 17 17 16 18 18 18 19 21 22 19 16 13 12 10 14 24 29 34 37 30 18 14 16 20 19 19 37 57 58 40 46 60 46 39 40 39 34 30 39 45 50 49 46 42 36 45 42 39 44 39 37 37 35 34 33 33 32 33
19 17 18 18 18 19 18 19 18 19 19 17 20 23 24 22 21 22 23 21 19 20 18 17 17 15 17 16 16 16 16 16 17 19 16 18 21 21 20 16 13 12 12 11 16 24 30 36 34 30 24 17 20 26 26 25 28 47 53 38 51 66 45 35 38 36 33 33 40 44 47 43 44 44 40 53 52 47 51 42 40 41 38 38 36 36 34 35
18 17 17 18 18 19 18 19 18 19 18 18 21 23 23 21 21 22 23 21 18 19 17 19 18 15 16 13 16 15 15 21 21 18 15 17 20 21 18 15 16 15 14 12 14 22 30 36 31 29 25 21 39 42 29 28 29 40 50 42 48 51 36 31 35 37 38 40 43 47 46 40 44 48 49 56 51 54 57 44 43 41 37 40 39 38 36 36
17 17 17 18 18 18 18 19 18 18 18 19 21 21 22 20 20 22 22 19 17 17 16 19 19 16 16 14 17 14 18 29 22 15 15 18 19 20 18 14 17 16 16 13 14 23 27 32 30 35 33 27 48 46 23 29 37 37 39 41 46 39 27 30 38 41 44 43 47 50 41 38 45 48 55 54 45 56 61 50 47 40 36 40 40 40 39 39
17 17 18 18 18 19 19 19 18 18 18 19 19 19 20 19 21 22 20 16 15 15 14 17 18 17 16 16 17 14 22 28 18 14 14 17 18 18 17 14 15 15 16 13 15 21 22 30 31 41 50 38 40 37 30 40 43 38 34 35 39 35 25 28 37 40 49 44 44 51 40 43 45 41 58 58 48 60 61 52 48 40 37 37 38 40 42 45
17 17 18 19 20 20 20 20 18 17 17 18 17 17 18 19 21 21 18 15 14 16 16 16 16 18 20 16 13 16 25 22 14 14 13 16 18 16 15 13 13 14 16 15 18 24 27 32 32 44 54 41 33 35 41 47 51 48 34 26 27 31 28 30 36 41 51 45 44 51 36 41 44 36 54 59 54 59 55 50 46 42 41 39 43 47 45 46
17 18 20 21 21 21 21 21 19 18 17 16 16 16 18 19 21 20 17 16 16 17 17 17 16 19 22 18 16 20 23 18 13 14 12 16 18 14 13 12 13 13 16 20 21 25 31 31 31 43 44 35 32 39 46 43 48 45 27 28 28 27 33 34 37 40 48 46 43 44 33 40 46 40 47 50 49 52 50 49 48 47 46 45 49 52 49 46
18 20 22 22 22 22 21 21 20 19 16 15 16 16 17 19 20 18 16 17 18 17 15 17 19 21 21 17 20 21 17 14 13 14 12 15 18 14 12 13 13 12 13 19 21 21 28 32 31 32 31 35 37 43 52 41 40 40 32 38 30 28 42 37 31 36 43 43 40 36 36 43 45 42 43 45 46 49 49 45 45 44 44 47 49 49 48 46
20 21 23 23 23 22 21 20 20 18 17 16 15 16 18 19 17 16 15 18 19 18 15 13 13 15 15 15 19 18 13 14 13 14 13 14 17 13 12 15 15 14 12 15 20 23 26 28 29 30 35 41 36 37 47 42 40 46 47 43 37 39 41 31 26 34 38 37 39 36 36 43 41 38 40 45 49 47 44 42 40 40 42 45 46 47 43 41
22 24 25 24 22 21 20 19 18 18 17 15 16 17 19 17 15 15 15 18 18 17 16 12 10 9 9 13 19 16 12 13 13 14 13 13 15 14 14 15 15 15 13 14 18 23 25 26 29 33 35 32 29 34 37 38 40 45 42 29 38 47 31 24 27 33 33 28 38 38 35 40 37 37 43 46 48 44 40 41 41 41 44 43 43 43 38 37
24 25 25 22 22 21 21 20 17 17 16 15 17 17 18 16 15 16 15 17 16 17 16 13 12 11 12 16 17 15 12 12 14 14 13 13 14 15 15 14 16 16 14 14 16 20 21 25 30 29 34 35 31 29 27 40 47 45 40 26 35 47 27 20 29 35 30 26 39 37 30 38 41 42 44 45 46 42 39 41 43 42 42 42 40 39 37 36
25 24 22 21 21 22 23 21 17 16 16 16 17 16 16 15 16 16 15 15 15 19 17 12 10 11 20 22 14 11 12 12 14 13 12 13 13 14 15 15 16 15 14 15 16 18 17 17 20 24 42 50 38 27 32 49 48 36 37 42 46 45 31 23 33 40 25 28 42 29 22 33 41 42 40 45 45 40 41 41 41 41 41 41 39 38 39 34
23 20 20 20 20 20 21 21 18 17 16 16 16 15 14 15 16 14 14 15 16 18 16 14 13 11 21 22 12 11 12 12 14 14 14 13 13 12 13 16 15 14 14 15 14 16 16 14 17 29 43 47 38 35 50 59 53 40 37 56 58 37 38 40 39 42 24 29 38 23 26 31 32 39 39 44 43 38 42 41 39 42 41 40 38 37 35 30
21 19 19 18 18 18 18 18 16 15 15 15 14 14 14 14 15 13 13 13 15 15 11 12 13 14 23 18 10 11 11 12 14 16 18 16 16 16 15 14 13 13 13 13 13 13 15 16 24 36 40 44 51 49 54 59 64 59 35 45 59 38 48 52 41 45 28 25 35 25 35 43 38 40 40 42 42 38 40 40 41 42 39 38 38 36 31 28
19 18 18 17 17 16 16 16 15 15 15 14 13 12 13 14 14 14 11 9 12 12 9 10 9 15 23 16 10 12 12 14 14 15 19 18 18 19 17 14 11 9 9 8 11 11 13 22 32 42 45 49 60 62 64 61 61 66 40 33 54 49 54 54 43 49 34 26 39 35 36 42 36 32 37 41 39 38 39 41 41 39 38 37 37 35 30 28
18 17 16 16 15 13 14 14 14 15 15 14 13 11 12 14 14 13 11 11 14 11 9 10 9 15 19 13 12 16 16 14 14 16 17 17 18 18 14 16 16 10 8 8 9 12 16 28 33 36 51 55 54 59 65 56 40 48 52 47 58 60 61 61 49 45 39 33 37 38 37 36 31 31 39 41 37 38 39 40 40 37 39 38 35 32 30 29
17 16 16 15 16 14 13 12 13 13 13 14 12 10 9 9 10 11 12 13 14 13 11 12 14 20 20 15 16 19 17 14 14 16 16 16 17 16 13 16 20 15 18 17 10 19 27 37 40 30 42 53 52 49 38 30 22 26 43 47 56 66 67 66 52 41 43 39 34 37 38 35 36 39 41 40 36 37 38 38 39 39 41 41 39 34 30 30
17 17 15 15 16 15 13 11 12 13 14 13 14 14 9 8 10 10 11 11 16 18 18 21 21 21 19 15 17 17 15 14 13 14 16 19 17 16 16 15 18 22 33 29 13 28 39 41 47 39 42 51 58 55 30 22 29 32 41 46 53 64 65 59 49 46 48 41 37 39 39 41 46 44 42 40 35 36 38 37 37 36 37 38 41 40 34 30
17 16 15 15 14 14 13 11 11 12 13 12 13 17 17 23 26 20 21 23 25 23 21 27 24 18 18 17 18 17 14 13 12 15 16 19 20 18 21 25 24 25 39 37 19 32 43 39 43 44 48 52 58 67 55 45 46 42 49 61 64 58 50 43 38 44 48 45 43 38 42 53 53 46 42 38 37 38 37 35 34 32 32 33 37 39 36 30
17 15 15 16 15 15 13 12 13 10 12 12 13 23 32 39 32 20 27 30 27 24 19 24 22 18 17 16 18 17 17 15 13 17 15 19 24 17 25 40 30 16 36 51 36 33 35 30 35 41 50 55 60 69 57 44 44 45 52 61 58 44 32 30 31 38 43 44 43 40 52 60 54 49 44 39 40 40 36 33 33 32 32 33 33 35 34 32
16 15 15 15 18 19 13 12 14 11 14 14 16 33 40 37 26 18 28 30 24 24 22 21 20 20 18 15 19 19 19 19 16 17 15 22 28 25 36 50 41 32 47 57 43 37 33 25 32 48 62 65 65 69 54 39 40 45 50 50 45 38 33 33 36 43 45 39 36 45 61 61 54 51 44 42 42 39 36 33 33 32 32 32 32 34 33 32
15 15 15 15 18 19 16 13 12 11 14 13 18 33 34 29 27 22 25 27 22 23 26 25 21 22 21 17 18 19 19 21 24 20 18 27 34 44 54 51 54 59 55 46 34 32 27 21 36 56 65 52 44 60 62 49 43 43 45 44 43 42 37 33 33 36 39 42 42 52 65 60 51 48 45 45 43 40 40 38 37 35 33 32 30 33 34 30
15 16 13 15 17 18 19 14 12 12 12 15 19 25 27 27 28 25 27 31 25 19 22 22 20 22 21 19 19 22 22 23 28 22 18 29 36 48 56 47 53 59 54 55 47 34 25 30 50 59 56 40 30 48 55 45 43 43 45 42 40 41 38 37 36 31 35 49 51 48 61 65 54 50 48 45 42 40 41 39 38 37 34 33 30 31 33 29
16 15 13 15 14 16 18 15 18 18 14 19 21 22 25 21 23 27 30 31 22 16 22 19 18 21 18 18 20 25 28 22 24 23 18 26 34 42 49 47 49 48 52 60 51 39 35 44 51 43 46 44 30 32 37 40 43 41 45 43 36 38 43 41 35 33 38 48 46 39 53 67 62 57 53 48 45 41 38 35 35 35 34 34 31 30 31 28
14 13 14 14 13 15 15 17 25 23 19 22 22 24 23 18 23 25 32 46 33 15 19 17 14 20 17 19 27 33 35 27 20 20 19 23 31 36 40 48 50 44 50 53 42 35 37 49 51 37 44 47 32 28 29 38 44 38 42 46 41 41 43 36 29 39 49 47 43 37 41 55 61 62 58 53 51 45 40 37 35 33 33 35 33 31 30 28
11 12 12 12 13 13 13 19 25 26 26 24 22 23 21 20 22 20 34 56 42 15 17 22 16 15 18 21 30 31 27 26 21 19 22 22 26 32 35 47 50 45 55 54 40 35 35 47 52 43 47 46 34 31 29 34 39 39 43 42 40 36 34 35 33 45 54 48 51 47 36 40 49 56 61 57 54 53 47 41 39 36 35 36 35 34 33 30
9 9 9 10 11 10 12 17 20 22 22 22 22 21 23 24 19 27 41 36 24 18 20 25 16 14 25 26 30 34 27 28 25 18 24 21 23 34 35 40 45 46 57 48 32 38 42 41 39 35 41 40 31 26 33 40 36 39 48 44 41 38 35 38 38 47 54 51 56 54 39 40 46 53 64 62 58 59 51 44 43 39 38 39 37 37 35 32
9 9 8 9 8 9 13 14 18 20 18 19 21 22 27 23 19 41 51 26 14 21 21 22 17 22 41 38 38 45 33 32 32 26 29 23 22 34 32 38 49 52 55 41 26 32 38 43 44 36 34 34 33 33 40 45 37 40 49 43 39 38 36 39 42 49 52 49 54 47 35 42 50 55 66 70 67 62 50 42 42 39 39 40 38 38 35 32
11 11 10 12 11 13 14 15 23 25 19 19 22 26 25 29 45 52 36 18 16 24 26 25 23 37 52 41 39 48 38 39 45 43 43 32 26 38 38 42 54 55 53 49 46 42 39 53 61 53 43 35 37 42 43 46 45 43 45 39 31 30 36 46 53 55 49 48 59 47 29 41 54 56 63 69 65 57 46 41 42 40 41 41 38 39 36 32
14 13 13 15 17 21 20 21 27 24 21 20 22 27 21 35 71 57 18 12 21 30 35 32 39 57 60 41 34 45 49 51 53 51 51 44 40 47 44 41 51 56 51 53 62 56 46 49 55 59 55 40 36 38 41 56 57 44 39 37 32 32 39 43 50 62 57 49 55 44 30 43 54 52 58 57 49 46 44 42 42 42 42 41 39 38 37 34
18 16 16 16 20 26 23 23 26 21 23 24 25 39 41 41 50 37 23 24 19 25 32 34 50 60 58 50 40 42 50 52 54 54 56 59 61 62 57 54 53 44 39 47 55 52 47 43 40 47 48 38 35 30 35 53 52 41 40 43 46 49 51 46 44 60 60 44 42 39 39 49 45 43 53 48 41 46 48 46 41 39 42 39 36 37 36 34
22 21 19 17 19 24 24 22 21 19 22 25 33 55 62 46 25 19 35 34 16 27 38 41 59 61 52 48 41 45 48 40 44 49 51 59 66 66 65 68 59 36 31 45 47 46 50 46 36 35 35 36 36 28 29 38 39 41 43 45 51 52 58 61 52 56 57 45 39 37 47 60 46 44 52 42 39 45 45 47 43 37 39 38 35 37 35 30
24 22 21 22 20 19 22 21 19 22 23 25 44 61 50 31 21 22 39 42 34 44 49 50 58 51 41 40 40 47 44 35 43 52 53 57 62 63 61 65 66 54 48 48 45 46 45 40 35 29 28 34 34 31 34 36 38 45 41 40 48 47 54 63 57 60 61 50 46 45 60 74 59 54 54 39 38 45 42 43 42 38 39 37 35 34 30 27
25 21 20 25 27 22 21 19 20 24 22 25 47 59 37 20 27 31 37 48 51 50 49 52 55 46 44 52 53 44 32 34 50 58 59 60 60 61 61 65 69 67 60 48 43 46 40 35 38 36 34 33 32 36 40 38 39 44 42 44 51 49 51 57 55 57 61 63 69 71 72 67 52 52 51 40 40 44 42 40 39 40 38 33 33 29 27 27
24 22 18 22 30 31 24 19 21 22 23 29 39 44 37 28 29 38 45 47 47 50 48 44 48 51 49 54 61 49 32 36 46 46 52 61 60 57 62 68 67 66 62 50 46 49 44 37 36 40 41 33 31 38 42 40 37 41 46 44 42 41 46 59 64 59 67 78 77 73 69 55 48 53 47 41 43 40 43 46 41 38 33 29 30 28 27 28
22 23 18 19 28 32 27 21 22 21 26 38 40 36 40 37 35 52 68 60 50 55 53 37 32 38 39 44 57 55 40 37 39 34 39 52 55 54 61 61 57 65 69 57 52 55 55 49 40 39 39 34 37 41 43 48 42 43 52 44 36 43 53 70 76 69 78 85 67 59 65 59 59 63 48 41 46 45 47 51 42 34 30 28 29 28 28 27
23 24 20 18 22 26 25 21 19 22 29 47 60 54 45 44 51 69 77 65 57 59 52 39 29 28 34 41 50 57 48 39 41 40 37 43 47 48 54 53 52 71 82 69 61 62 61 52 42 40 39 38 40 33 31 45 46 42 46 39 40 54 62 72 78 75 85 90 73 61 61 60 63 65 55 48 50 51 52 50 41 33 31 30 30 29 27 26
22 27 23 18 19 21 21 18 19 26 30 45 63 58 45 51 67 82 79 62 58 59 48 38 34 35 39 39 45 59 54 40 41 43 35 37 44 46 51 51 49 68 86 78 70 69 59 49 45 44 42 37 35 29 26 35 42 46 46 43 50 55 56 66 73 74 83 88 85 75 64 63 63 52 48 51 51 51 49 44 37 33 33 33 31 29 27 27
23 26 20 14 18 20 15 13 26 43 46 51 62 57 46 50 62 81 88 73 55 45 39 38 39 41 43 41 45 53 51 45 46 45 42 44 44 44 57 67 63 73 84 74 64 63 57 53 50 44 40 36 33 30 28 30 38 51 56 57 64 61 58 69 69 67 81 87 85 84 73 62 51 38 41 50 47 43 41 38 36 35 35 34 30 28 28 28
31 32 20 13 19 21 17 22 46 69 67 61 64 60 52 49 50 67 90 90 68 48 42 46 48 48 46 41 43 47 48 51 52 48 48 50 40 35 56 83 92 88 73 55 51 54 55 58 57 54 49 38 29 24 25 31 35 43 50 49 56 61 62 76 76 64 75 81 73 81 85 66 42 33 39 43 38 37 37 38 40 38 35 32 29 28 28 28
37 35 19 13 16 18 23 39 68 88 81 65 58 57 61 61 50 52 71 77 66 56 52 49 51 56 52 41 46 56 51 49 52 48 47 52 45 41 61 91 103 94 68 49 50 57 62 67 66 67 58 37 30 34 42 49 39 34 45 47 56 67 65 76 83 68 69 72 64 75 90 70 40 32 37 36 33 36 39 40 41 38 33 31 29 28 28 29
34 22 10 13 15 15 25 42 64 77 71 61 58 58 65 68 54 46 57 59 50 48 49 46 45 46 44 45 54 58 46 39 42 41 48 63 59 55 79 99 93 80 62 46 48 58 69 73 61 52 45 32 29 38 47 51 39 32 42 49 58 65 60 65 73 72 81 83 74 85 93 65 38 34 34 32 34 39 41 41 41 37 32 31 29 28 30 31
33 17 16 17 7 14 34 43 51 61 57 48 50 54 55 58 58 53 50 50 50 47 43 45 43 38 45 56 58 54 43 33 33 36 47 62 60 65 93 104 82 62 49 40 43 47 51 58 54 46 46 43 36 38 41 39 34 32 38 46 52 55 63 71 74 84 95 82 70 88 92 60 35 34 33 32 38 44 43 41 38 35 34 31 30 31 31 31
30 23 34 29 10 24 49 51 52 62 61 49 42 45 46 44 54 62 52 50 61 58 47 45 45 46 54 56 55 60 52 31 27 39 50 59 64 73 95 104 85 68 67 72 69 55 46 53 55 48 53 59 55 51 45 38 37 38 39 45 52 62 77 79 77 89 90 70 67 83 82 58 38 36 37 38 45 47 43 39 35 34 34 32 33 33 33 38
26 26 39 36 25 38 57 64 69 63 57 56 42 36 44 37 40 61 60 49 56 59 53 52 51 49 49 49 54 64 60 45 40 45 52 61 66 71 89 102 93 85 93 102 94 75 62 61 59 53 53 55 52 44 35 35 44 48 49 52 56 69 77 70 72 82 75 70 76 70 63 62 52 44 45 45 48 48 42 39 37 35 34 35 35 35 38 47
43 35 35 29 24 42 56 63 74 62 50 58 42 27 43 40 31 47 48 39 49 57 57 63 61 48 43 48 51 52 56 56 48 42 50 66 72 72 78 85 89 97 100 94 89 75 56 51 58 62 58 49 44 39 33 39 49 50 54 58 59 66 64 57 65 68 62 80 87 61 53 68 61 49 49 49 47 44 41 40 39 37 37 37 36 39 47 52
46 39 41 35 26 42 50 45 60 66 60 68 57 40 46 45 34 38 36 39 54 52 43 49 56 58 62 59 44 39 50 50 42 47 57 64 72 74 68 64 72 87 81 70 81 78 56 53 62 60 56 49 45 42 39 45 50 47 52 56 54 57 56 53 60 58 58 80 83 59 55 66 59 50 49 47 43 42 41 40 38 39 40 38 40 48 54 53
39 38 45 47 41 48 52 51 61 61 60 74 66 46 46 45 37 42 46 47 48 45 40 33 35 60 82 75 50 44 50 40 32 49 62 62 69 73 69 61 60 65 57 52 72 75 56 64 78 70 60 52 44 42 43 47 48 46 50 51 45 46 50 54 58 56 57 65 61 54 59 60 54 50 47 42 39 39 40 39 40 42 41 42 48 55 56 52
34 34 38 50 57 62 68 72 68 53 55 72 59 43 55 56 44 49 56 46 29 31 42 36 37 68 88 76 57 47 49 43 32 39 55 66 74 76 70 60 55 62 58 48 59 60 46 60 83 80 67 53 42 41 43 45 45 48 52 49 44 49 56 60 62 58 59 61 53 53 65 65 52 44 42 39 39 41 42 43 45 44 42 47 54 55 53 55
27 27 29 38 48 59 67 69 69 60 53 57 53 49 57 56 50 53 56 61 55 42 41 44 52 73 78 66 57 51 56 66 60 55 61 66 69 69 65 59 58 64 62 53 58 60 54 63 78 78 71 57 41 39 43 40 42 58 66 55 48 58 63 60 59 54 54 59 59 65 77 73 52 40 42 43 42 44 46 47 48 44 44 51 52 50 56 62
26 23 29 40 42 56 70 68 68 63 43 41 57 61 57 60 67 57 41 60 84 71 62 68 64 61 61 54 51 53 61 75 77 75 77 75 70 69 69 67 65 66 64 58 57 61 59 59 67 75 74 58 41 41 48 48 52 70 75 57 49 57 58 53 51 45 42 49 63 77 76 59 43 42 49 49 48 50 51 50 47 46 48 48 47 53 64 66
Wind_Speed
3 3 3 3 4 5 6 7 7 6 5 4 4 5 6 8 9 11 12 11 8 4 2 2 3 3 3 3 3 7 7 8 21 29 21 17 23 22 20 18 17 17 15 13 12 9 7 8 10 14 8 2 4 2 2 3 3 5 3 2 1 2 3 4 5 5 3 3 4 2 1 6 2 1 3 3 8 6 5 6 4 7 8 8 11 13 15 18
3 3 3 4 4 5 6 7 7 6 5 4 5 5 6 8 9 11 12 12 10 7 3 1 3 4 5 5 7 8 6 7 20 24 20 23 24 20 17 17 17 16 15 14 11 7 4 5 8 10 7 2 3 3 2 2 3 4 3 2 3 5 4 4 5 5 3 3 2 2 3 5 4 5 4 2 1 3 6 4 3 7 7 8 11 15 18 21
3 3 4 4 5 6 6 7 8 6 6 6 5 5 7 8 9 11 12 11 10 10 8 3 2 4 6 7 8 7 5 6 15 16 22 27 23 19 17 16 17 17 16 13 9 5 2 1 3 5 4 2 2 2 3 3 2 2 3 2 5 6 4 4 5 5 5 4 4 2 2 2 3 5 3 4 5 3 5 4 3 5 5 6 7 14 19 20
3 3 4 5 5 6 6 7 7 6 6 6 5 6 7 8 10 11 11 11 10 9 9 7 5 3 5 7 6 4 4 6 7 13 24 26 21 18 15 16 19 19 16 10 6 4 3 2 2 5 4 2 4 3 3 3 1 1 4 3 6 3 3 5 6 6 5 4 5 4 3 2 3 4 3 6 5 4 6 8 8 10 10 8 6 11 16 18
3 4 4 5 5 6 6 6 6 6 6 6 5 6 6 8 10 10 11 11 11 10 8 8 8 9 9 5 3 4 2 5 6 18 26 23 21 17 13 16 19 19 14 5 3 5 6 5 5 6 4 2 4 4 1 3 1 2 0 5 5 4 3 6 6 5 3 4 5 5 4 3 3 2 4 8 6 5 6 7 9 11 11 10 9 10 13 15
3 4 4 5 5 5 6 5 5 4 4 4 4 5 6 8 9 10 11 12 14 13 9 5 8 12 15 14 11 6 6 3 9 20 24 20 19 14 12 15 16 18 13 6 5 6 6 6 6 4 3 3 2 2 2 5 2 1 3 3 4 4 3 4 4 5 5 6 4 5 3 4 4 1 3 7 6 4 1 6 10 11 12 14 13 12 11 11
3 4 4 4 5 5 5 5 4 3 3 3 4 5 6 7 8 9 10 13 16 17 11 3 5 4 5 10 17 16 9 1 12 21 22 18 16 13 11 12 13 15 15 13 7 4 5 7 5 4 4 3 1 2 2 5 4 3 1 3 2 4 3 2 1 2 5 5 5 4 3 4 4 2 2 4 4 1 4 10 13 13 15 17 13 10 10 10
3 3 3 4 5 5 5 5 4 3 2 2 3 5 6 7 8 9 9 11 14 19 16 6 4 3 1 2 8 11 5 5 16 23 20 15 13 13 10 11 15 16 17 17 8 3 4 6 2 3 3 2 2 1 3 4 4 4 1 3 1 1 4 3 3 2 2 3 2 5 2 2 3 3 3 4 3 5 7 11 12 13 14 13 10 9 10 11
3 3 4 5 5 5 5 5 4 3 2 2 3 5 6 7 7 8 8 8 10 15 18 13 5 2 1 2 5 6 5 8 16 22 19 12 10 11 10 12 16 17 17 15 10 5 4 2 2 3 3 1 2 1 2 2 1 0 1 2 1 3 5 4 3 3 3 3 2 4 3 4 1 1 1 4 7 6 8 10 9 11 11 9 9 8 10 10
3 4 6 6 6 6 6 5 4 3 2 3 4 6 6 7 7 6 6 7 8 10 15 17 14 10 8 6 7 6 7 11 16 21 17 10 8 7 10 13 13 15 15 14 13 8 2 2 3 4 5 2 3 2 2 2 1 2 2 1 3 4 5 2 3 3 3 3 4 4 4 4 3 1 2 3 7 7 10 9 7 11 9 8 7 7 10 11
5 6 7 7 6 7 7 6 5 3 4 4 5 6 6 6 6 5 5 5 6 7 9 10 15 21 21 13 8 5 9 13 16 20 14 8 6 6 10 13 11 12 12 13 14 8 3 3 4 4 3 2 1 3 3 1 1 1 1 2 3 7 4 4 5 4 5 2 4 4 2 3 3 1 4 5 7 8 10 9 7 10 8 7 8 6 9 10
6 6 6 7 7 8 9 8 6 5 5 6 6 5 5 6 6 7 5 4 3 5 6 6 7 11 15 13 7 4 10 13 17 18 12 7 6 6 11 12 9 10 9 11 12 11 7 2 7 6 1 1 1 3 2 1 1 2 4 0 6 10 5 4 5 4 4 1 2 3 1 2 1 3 5 4 8 8 10 9 7 8 7 7 7 6 7 11
6 6 7 8 9 10 11 10 9 9 7 7 6 5 6 6 7 6 4 3 2 4 4 7 8 5 5 5 4 9 13 15 19 17 11 10 7 4 10 10 8 9 8 11 12 13 11 8 14 8 1 4 1 1 2 5 4 2 5 4 4 9 4 2 4 6 5 1 1 2 3 3 5 7 5 6 10 10 9 8 7 7 6 6 6 6 7 13
6 7 8 9 10 11 12 12 13 11 9 7 5 4 5 7 8 8 6 4 4 3 2 4 5 6 7 3 1 12 16 17 22 22 17 15 11 6 9 9 8 9 9 12 13 13 11 11 16 9 2 5 1 2 4 6 5 2 4 3 3 4 6 6 6 7 6 1 4 6 4 4 5 9 5 6 10 12 10 8 7 7 6 6 6 7 8 12
7 8 9 9 10 11 12 13 15 14 13 10 6 4 4 6 7 7 8 5 4 3 2 2 2 3 6 2 2 14 20 21 26 27 22 18 15 11 10 9 10 12 13 12 11 12 13 11 12 6 3 4 4 5 5 4 5 4 4 4 3 1 6 10 7 4 4 4 6 8 5 5 5 8 5 3 8 10 11 8 8 8 7 7 6 8 7 8
7 7 7 7 8 9 10 11 12 13 14 14 12 5 3 4 5 7 10 9 8 6 4 4 4 4 5 1 7 14 18 22 25 26 21 16 15 13 10 6 8 9 11 14 13 11 16 13 7 3 3 6 6 4 4 4 5 4 3 3 5 3 5 8 5 3 4 3 6 5 2 5 6 6 6 3 8 10 11 9 8 9 7 7 6 7 6 6
7 6 6 6 7 7 7 7 8 10 13 17 20 16 11 7 4 5 5 7 6 6 7 9 7 4 6 5 7 10 13 18 22 25 24 15 14 16 13 7 3 5 5 12 18 13 12 10 2 2 4 5 3 3 5 5 5 4 3 2 4 3 3 5 5 4 6 5 6 4 1 6 7 9 9 3 10 11 11 9 9 8 6 7 7 6 6 5
7 6 6 8 8 7 6 5 7 11 14 15 19 24 26 21 14 12 8 2 2 4 6 13 10 4 5 9 6 10 15 17 19 25 25 15 10 16 18 9 5 8 5 7 14 11 6 5 3 3 4 5 5 6 5 2 3 4 4 3 4 3 3 5 7 4 6 5 4 4 4 7 8 10 10 3 11 12 11 10 8 7 7 6 6 6 5 5
8 7 7 9 10 8 6 6 9 11 10 8 8 12 17 17 18 24 24 15 6 4 3 7 7 4 2 6 8 14 14 12 18 25 27 21 11 11 16 12 7 7 7 3 6 7 4 4 5 4 4 5 5 2 2 3 4 5 6 4 5 6 5 6 8 4 5 4 3 3 6 7 9 10 9 5 10 13 11 10 8 7 7 6 5 4 4 5
9 7 6 9 10 9 8 6 6 7 5 3 1 1 3 4 7 11 16 15 7 6 5 1 2 3 2 4 10 17 10 7 16 25 31 25 12 8 12 11 8 8 6 1 4 5 4 5 5 2 4 6 5 4 4 2 2 3 4 3 5 6 6 7 8 6 4 3 2 3 5 6 8 8 7 6 11 13 12 11 9 7 6 5 4 3 4 5
10 9 7 8 10 11 10 8 2 5 6 6 3 1 1 2 5 1 2 6 5 5 7 1 1 2 2 3 11 15 5 4 13 23 32 24 9 6 7 7 8 7 5 2 3 4 5 6 3 5 7 6 3 2 3 0 1 1 3 4 4 5 8 10 9 5 5 5 4 2 5 6 7 6 6 6 11 11 9 11 8 7 6 3 4 3 3 3
11 11 9 8 10 11 11 11 10 6 4 4 6 7 4 5 9 8 4 4 3 5 5 3 4 4 3 2 11 13 3 5 11 19 30 23 9 6 3 5 7 3 6 3 2 5 6 3 5 7 3 2 2 3 3 3 1 1 2 2 5 5 7 10 7 2 3 4 6 3 6 5 5 5 5 7 9 8 7 9 7 6 5 3 3 3 2 2
10 12 11 9 9 10 11 10 10 9 10 11 13 11 9 9 10 7 5 5 2 4 3 5 5 5 5 5 13 13 6 7 5 12 25 18 7 4 3 5 6 2 6 6 4 4 3 2 4 3 1 3 1 4 5 5 2 2 3 2 5 4 3 6 7 6 4 3 4 3 6 3 2 4 6 6 6 7 6 7 6 5 5 4 4 4 4 5
9 10 10 9 8 8 9 9 7 8 10 13 15 13 12 9 7 5 4 4 2 2 2 1 2 3 3 4 13 9 3 4 0 9 22 13 3 3 4 3 4 4 4 3 6 5 1 5 1 4 5 3 1 5 5 5 5 4 3 3 5 6 4 6 9 13 9 3 2 4 4 2 3 3 5 4 3 5 5 5 6 5 5 5 4 4 5 6
8 8 7 7 7 6 5 6 7 8 8 10 13 13 11 7 4 4 4 4 3 3 3 2 2 5 4 6 13 5 3 3 2 7 17 11 4 2 3 1 3 5 4 0 4 4 1 4 0 3 6 6 4 4 3 1 5 6 4 5 6 8 8 9 12 11 8 4 0 4 2 2 3 4 4 3 3 3 3 4 6 4 4 4 4 4 5 6
8 7 7 6 6 5 2 2 4 6 5 5 9 9 6 4 2 2 3 5 4 3 5 4 2 8 7 8 12 3 3 4 2 7 16 14 5 2 3 3 2 4 3 1 2 0 1 3 3 4 4 6 6 4 2 1 5 6 4 4 5 7 8 12 14 8 3 5 3 2 1 3 2 5 6 5 4 4 2 3 5 4 4 4 4 3 4 5
9 8 7 7 5 5 1 2 3 3 2 3 7 6 3 3 2 2 3 5 4 2 4 4 3 8 8 9 11 3 3 7 4 8 15 17 9 2 4 4 2 3 1 2 4 1 2 5 6 5 5 6 5 4 2 2 2 6 5 1 6 9 10 13 12 5 3 4 4 1 2 2 4 4 7 6 5 4 3 2 3 3 3 3 4 4 4 5
9 8 8 7 5 3 1 3 4 3 3 5 6 4 3 4 3 1 4 4 3 1 1 3 3 6 6 9 12 7 1 6 3 8 14 17 12 3 4 4 1 2 2 4 4 4 1 3 5 3 4 4 2 4 4 3 1 7 6 4 6 8 10 12 8 5 3 2 4 4 1 1 4 2 4 6 5 4 4 2 2 2 3 3 4 4 4 4
9 8 7 5 3 1 2 4 4 4 6 7 5 4 5 5 2 3 6 3 2 1 1 2 3 5 7 8 9 5 3 4 3 7 13 13 14 7 3 1 2 2 2 4 1 4 2 1 2 2 2 2 4 7 4 4 4 8 6 5 7 7 7 6 4 4 2 0 4 5 1 1 4 2 4 6 5 5 4 2 1 1 2 2 3 3 3 4
11 8 6 3 0 2 4 4 5 7 7 6 6 7 7 4 4 6 4 0 1 2 1 3 3 4 8 8 7 6 5 4 2 6 6 4 11 11 3 1 3 4 3 4 1 4 5 2 2 2 0 2 4 7 3 6 5 6 6 5 7 6 4 2 2 1 2 2 4 5 1 1 3 3 4 4 2 4 4 1 1 2 2 2 4 4 4 4
14 12 9 5 3 3 3 4 6 8 7 7 8 7 4 3 5 7 2 1 1 3 3 4 3 4 7 5 4 6 4 5 5 6 6 4 9 11 6 4 4 4 5 6 4 6 6 3 1 2 2 1 2 5 3 2 2 5 4 4 7 7 3 3 3 4 4 6 5 4 4 3 4 4 3 3 3 6 5 2 1 3 3 3 4 4 4 4
15 15 13 10 7 5 5 6 8 8 8 9 7 5 4 3 4 3 1 3 2 3 2 2 3 4 5 3 4 6 4 5 5 5 4 3 5 6 5 4 3 4 6 5 5 7 4 1 2 5 2 2 3 5 5 4 4 5 4 5 6 5 5 5 6 4 3 7 5 2 5 4 6 5 4 7 4 5 4 3 2 2 3 3 4 4 4 4
14 15 15 13 10 9 9 8 8 7 8 8 5 5 6 5 2 1 3 3 2 3 1 1 3 3 3 3 5 5 2 2 4 4 2 2 4 4 4 6 5 4 3 3 4 6 4 4 5 5 3 2 5 5 7 6 5 6 4 2 3 3 5 7 6 4 6 7 4 2 6 5 7 4 6 8 6 5 4 4 4 3 3 3 5 5 5 6
14 16 15 14 11 10 8 6 6 7 8 6 5 6 7 4 1 1 2 3 1 3 2 0 4 4 3 3 3 4 3 2 3 5 4 4 5 4 4 7 7 4 0 2 3 2 4 4 3 2 2 2 4 2 3 5 5 5 1 1 1 1 2 6 4 3 9 10 6 5 5 4 6 3 6 8 6 6 4 3 3 2 3 3 5 5 6 9
11 16 18 16 13 9 6 5 5 7 6 6 7 6 6 2 3 1 1 4 2 3 3 1 3 4 3 3 3 3 1 2 3 5 4 4 3 2 3 4 5 3 1 2 2 0 1 5 6 3 2 1 2 3 2 1 5 3 2 1 2 1 2 4 5 4 6 10 7 3 3 4 2 2 5 6 4 4 2 1 2 5 3 4 6 7 9 11
5 12 18 19 16 9 4 5 5 6 5 6 8 5 2 3 2 2 2 2 1 2 3 3 4 5 4 5 4 4 2 1 2 4 3 2 1 1 2 2 2 3 2 2 1 1 1 5 7 6 3 3 1 5 2 2 3 2 2 3 4 3 5 2 7 3 2 7 5 1 4 3 2 1 3 4 1 1 3 4 6 7 6 8 9 10 11 12
2 5 12 19 19 11 4 4 6 6 5 7 7 3 2 2 1 2 2 0 1 0 3 2 2 2 3 3 4 6 5 2 2 3 2 1 1 1 2 2 1 1 1 2 1 1 1 6 7 4 4 5 2 2 2 1 1 1 2 5 4 0 3 2 3 4 3 6 5 4 9 8 5 3 2 0 5 9 10 10 10 10 11 11 11 11 12 12
2 1 6 17 20 11 4 5 6 6 6 8 6 3 2 0 1 1 2 1 1 2 5 2 1 1 0 1 3 6 5 3 3 3 2 1 1 2 1 2 1 1 1 1 1 0 2 4 7 1 2 8 4 3 3 3 2 1 3 2 2 4 5 2 1 5 5 6 7 10 12 8 5 4 1 4 10 12 12 10 10 12 12 11 12 12 12 13
3 1 3 15 19 10 4 4 5 7 8 6 3 2 1 0 0 2 2 2 1 3 4 1 1 2 0 1 2 4 3 2 2 3 1 1 2 2 3 1 2 0 1 2 2 1 1 1 5 3 2 7 5 4 4 5 4 3 3 3 3 2 4 3 1 3 4 6 8 11 12 5 3 3 1 5 9 10 11 9 7 10 11 11 12 11 12 13
2 2 2 15 15 5 6 8 8 8 7 4 3 2 1 0 1 2 2 1 1 2 1 1 1 2 2 1 1 2 1 1 1 1 1 0 2 1 2 1 2 2 2 2 2 0 1 1 4 5 4 4 4 2 2 5 5 3 3 4 4 2 2 3 2 0 0 4 7 10 11 5 1 2 1 3 7 9 10 8 7 10 12 13 12 12 13 13
3 3 3 16 11 3 4 12 10 5 4 4 2 2 1 1 1 2 2 1 0 1 1 3 3 1 0 1 1 2 1 2 0 0 0 1 1 1 1 3 2 2 2 3 3 0 0 1 3 5 5 3 4 5 3 2 2 2 2 3 3 3 3 5 6 2 1 2 5 8 12 7 1 1 4 3 8 10 9 9 11 13 14 14 13 13 13 13
6 3 5 15 8 5 7 9 4 3 4 3 1 2 1 1 2 1 1 1 1 0 2 3 2 1 2 1 1 1 1 2 1 1 1 1 1 3 2 3 3 0 1 1 3 2 1 1 2 5 5 6 9 5 1 0 3 3 2 1 1 0 2 2 7 7 4 5 6 7 10 6 1 3 3 7 13 11 8 11 15 15 14 14 14 14 14 13
4 3 5 12 3 5 10 7 3 5 4 0 1 1 1 1 2 0 0 2 1 0 2 2 0 1 1 1 0 1 1 1 1 0 1 2 2 3 3 3 3 1 2 1 3 2 0 2 2 5 5 6 7 3 3 1 1 2 2 1 1 2 1 4 6 5 5 7 5 5 8 6 1 1 6 14 15 10 10 13 15 15 13 13 15 15 14 15
3 3 4 14 6 3 5 5 2 2 1 0 3 2 2 1 2 2 1 1 1 1 2 1 0 0 0 1 1 1 1 1 0 1 0 1 2 1 2 2 1 2 1 0 1 2 2 1 3 6 7 7 7 5 4 3 4 4 4 1 2 5 6 3 3 2 2 5 7 7 9 9 5 8 14 16 12 11 13 13 13 14 14 14 14 14 14 15
4 1 3 14 18 10 4 3 6 5 3 3 4 2 3 2 1 1 1 0 1 2 1 1 0 0 0 1 2 1 2 2 1 2 2 1 3 2 1 1 1 1 1 1 2 1 1 0 1 2 5 8 8 8 9 9 6 4 6 6 5 5 5 4 3 3 3 7 8 7 10 13 13 18 20 15 12 14 16 14 14 14 14 14 14 14 15 14
3 3 2 8 13 11 4 1 5 6 4 4 4 2 1 2 1 1 1 1 0 1 1 2 1 1 2 3 3 3 2 2 2 1 1 2 3 2 1 1 1 0 1 2 4 3 2 0 2 4 5 6 7 10 11 10 9 8 11 12 9 4 3 4 4 3 6 9 9 9 14 19 21 22 19 14 14 17 16 15 15 14 14 14 15 16 16 14
2 3 2 1 4 5 4 4 5 4 3 4 3 0 1 1 2 1 1 1 1 1 1 2 2 2 2 3 3 2 3 3 3 1 1 2 3 4 2 1 1 1 2 2 3 3 3 2 4 5 7 9 9 14 15 11 9 11 12 11 9 5 6 6 4 6 8 8 10 15 20 23 23 20 16 14 17 18 17 17 16 15 14 15 16 17 17 15
3 3 1 1 2 2 2 3 3 5 4 4 3 2 1 2 2 0 0 1 1 1 1 2 4 4 1 1 2 1 4 5 3 1 1 2 3 5 4 1 2 2 2 2 3 3 4 3 4 2 6 11 11 14 14 9 7 9 8 7 6 5 6 6 7 9 9 8 13 22 25 24 21 17 15 17 18 18 18 17 15 14 16 18 19 17 16 16
3 4 0 2 3 3 1 2 4 6 6 4 3 2 2 3 2 1 1 2 3 3 2 1 4 4 1 1 2 1 2 2 3 3 0 1 3 3 3 2 1 2 2 2 3 2 3 3 3 1 8 13 11 12 10 7 8 8 5 2 3 4 5 7 7 9 11 13 17 23 25 21 16 13 15 18 18 16 16 15 15 16 19 21 18 15 16 18
2 4 2 3 4 2 2 3 3 4 4 3 3 2 2 4 3 1 0 2 1 2 3 2 3 4 1 2 4 1 3 3 3 5 2 1 3 1 0 2 1 3 3 2 1 1 1 3 2 2 6 11 10 7 6 7 10 9 4 2 4 7 8 9 8 9 12 16 19 21 20 16 9 10 16 17 15 16 17 17 17 18 20 19 17 17 19 19
5 5 6 7 4 3 3 3 3 4 3 3 2 2 1 2 3 2 1 0 1 0 1 1 1 2 2 2 2 1 4 4 5 6 5 3 2 3 2 2 1 3 4 1 1 3 2 2 3 5 5 9 8 8 11 13 10 6 4 5 6 8 9 9 10 11 14 19 21 17 13 11 10 13 16 16 16 19 20 19 20 19 18 18 20 22 20 19
7 6 5 7 4 3 2 2 3 4 2 1 1 2 0 1 2 2 2 0 1 1 1 2 2 0 2 1 1 3 4 4 5 5 4 4 2 2 2 2 2 1 1 1 1 1 2 1 4 3 3 8 9 11 13 12 8 5 2 2 5 9 10 11 12 14 16 16 14 11 9 12 16 17 17 18 20 21 18 18 20 18 15 18 22 21 18 18
Wind_Direction
87 61 38 40 38 32 29 25 21 17 29 55 72 63 42 30 22 21 22 28 37 44 78 151 166 165 171 182 287 336 345 7 28 33 34 11 357 360 358 351 348 348 350 351 356 356 354 8 2 3 13 52 14 330 3 17 56 53 83 89 291 211 200 183 191 196 168 243 239 269 107 123 155 230 153 55 49 72 57 47 50 52 64 84 99 96 88 87
77 49 43 46 39 33 28 25 22 27 57 87 88 69 41 28 22 21 23 32 44 45 48 194 218 223 232 255 285 325 334 0 26 26 14 4 1 5 3 357 357 355 359 357 358 14 24 354 347 9 25 41 343 339 14 5 58 83 115 96 240 207 205 194 187 192 181 226 214 58 88 128 176 178 149 95 110 112 86 57 52 77 77 82 89 89 86 83
60 44 48 43 38 32 29 31 32 47 79 99 92 65 41 28 21 22 26 36 46 47 44 35 305 270 266 279 288 313 318 14 30 9 358 3 5 9 9 4 2 357 355 355 355 10 51 278 347 32 44 40 335 344 24 9 35 144 118 91 242 214 222 229 190 204 219 202 148 141 157 161 195 167 155 152 169 176 147 162 140 134 135 113 95 88 85 81
49 47 46 40 38 31 33 37 43 63 87 96 86 57 40 26 23 26 30 37 39 41 41 40 29 346 308 291 288 299 331 39 26 340 353 3 4 9 14 12 9 0 351 350 1 26 71 134 80 59 66 31 333 16 45 345 2 111 110 170 228 183 212 237 196 212 222 175 151 162 165 193 204 158 158 144 147 236 217 199 174 164 157 138 116 94 89 85
47 47 44 41 36 29 36 44 53 73 86 88 74 49 36 26 28 31 34 37 30 26 29 46 70 66 41 4 273 257 8 51 331 336 354 1 5 9 18 21 16 7 359 358 40 73 81 84 73 51 58 38 346 25 23 300 61 70 110 204 202 139 204 241 199 207 192 137 128 140 170 184 149 134 168 157 175 238 223 201 168 152 149 137 125 106 92 86
49 47 46 42 31 32 40 53 67 77 81 76 60 42 32 29 33 36 41 43 34 22 15 54 98 83 62 58 69 72 81 96 310 340 355 359 7 11 19 21 14 9 19 73 84 84 73 46 58 51 48 52 14 74 271 301 53 140 269 252 217 171 206 234 191 204 156 125 149 168 186 137 117 260 190 176 209 254 204 152 140 137 138 127 117 108 95 88
50 49 47 36 32 41 45 57 70 71 75 61 46 36 30 33 37 38 46 52 40 27 22 83 148 125 63 56 59 61 83 109 330 349 355 359 9 12 20 18 15 17 36 57 52 82 75 43 67 106 81 62 209 169 294 313 33 92 218 296 248 188 221 236 143 216 150 158 205 166 124 138 169 234 135 198 232 50 87 117 123 127 126 118 109 107 101 97
51 48 39 32 36 44 42 46 50 57 63 47 44 36 33 38 39 38 51 58 44 34 33 56 166 197 274 16 54 56 60 326 346 355 352 356 9 12 21 27 26 31 41 42 33 113 87 47 85 139 83 54 177 163 331 331 15 59 127 287 307 229 293 326 2 312 187 212 207 121 145 213 198 165 139 208 168 109 110 111 117 119 114 111 109 111 107 100
45 33 26 26 32 32 28 29 34 45 48 52 47 36 40 43 39 36 51 63 51 44 42 49 79 171 135 79 83 64 351 330 350 353 350 351 5 12 26 30 26 32 40 38 37 71 91 91 203 173 155 169 98 43 335 25 322 248 213 274 359 328 315 342 332 275 230 240 142 148 252 306 301 185 233 188 148 132 121 113 120 117 110 112 112 115 114 105
30 23 22 21 23 21 21 23 26 38 47 54 48 46 51 43 40 38 54 73 63 50 45 55 69 80 95 83 74 64 335 340 352 350 348 348 1 19 28 22 16 27 37 34 34 39 67 179 201 137 130 125 74 8 348 70 185 239 251 206 58 330 296 355 346 319 297 241 180 192 267 317 325 331 284 199 151 139 122 119 122 115 112 115 113 111 109 107
29 28 27 26 31 31 30 31 30 42 49 55 56 55 51 42 51 54 66 86 72 47 37 53 69 71 74 72 77 61 341 347 351 351 353 350 10 27 16 6 6 23 34 35 31 27 18 204 163 109 99 84 55 358 358 98 178 325 309 215 354 349 321 7 20 6 345 289 171 171 236 312 347 2 234 195 154 147 127 125 116 109 113 110 108 101 102 103
36 33 38 46 51 48 46 43 45 54 59 64 64 59 57 58 69 77 84 97 75 41 28 40 65 70 66 64 79 30 351 354 352 358 9 9 20 23 5 359 8 24 37 42 30 32 45 145 114 82 333 125 92 358 25 63 58 341 43 118 316 359 0 355 19 360 356 1 165 163 255 295 244 251 245 165 146 142 120 120 111 105 107 101 102 100 96 81
39 43 57 67 64 60 56 57 63 65 66 68 66 67 72 72 71 82 102 113 83 40 43 65 67 68 59 65 61 17 6 2 2 12 28 25 19 6 9 14 23 24 46 62 44 44 61 96 95 91 88 96 126 317 62 29 25 300 33 66 333 2 330 320 24 341 2 40 12 20 307 280 239 263 268 161 151 135 118 116 109 105 101 101 106 97 76 66
49 66 77 77 69 64 64 72 77 74 71 67 70 85 86 81 71 77 93 97 94 69 70 83 73 68 61 108 74 12 7 8 15 18 18 16 14 6 27 47 56 50 70 72 54 55 68 81 83 87 72 70 344 355 28 8 18 331 7 40 35 10 286 321 352 341 2 315 25 28 291 272 275 291 295 178 159 136 125 115 109 107 102 110 103 84 72 68
71 86 87 79 71 68 70 80 84 81 77 71 72 95 104 94 77 73 82 95 107 80 54 48 75 85 64 95 342 4 6 13 15 12 9 9 12 359 7 46 71 75 76 63 52 55 55 63 70 58 324 12 33 38 19 349 15 25 14 334 347 21 279 319 333 22 26 297 16 31 279 278 277 285 304 172 149 124 118 114 112 112 111 114 92 83 82 75
84 87 79 67 58 63 74 83 86 82 75 71 70 80 126 108 92 82 84 99 93 61 40 21 8 80 88 341 340 1 7 8 3 6 13 13 14 358 352 45 81 81 74 50 43 41 39 49 68 52 358 16 38 54 34 11 359 8 37 305 294 322 313 321 322 35 38 321 353 18 277 291 286 302 336 101 127 115 115 115 115 117 115 105 88 88 88 73
80 73 60 45 41 61 85 89 88 85 81 80 77 79 88 89 121 124 107 120 87 37 54 31 358 87 73 357 351 355 349 351 354 5 15 15 18 16 21 54 41 26 61 34 27 21 23 37 62 44 41 37 39 67 54 19 334 328 19 330 275 289 303 314 310 328 23 14 330 346 247 274 298 332 340 95 125 116 118 119 117 116 102 93 90 90 84 73
66 58 50 45 48 70 93 97 106 105 98 92 83 82 83 81 87 85 69 132 266 334 45 21 11 95 28 357 355 329 322 335 355 7 13 14 14 19 28 38 357 4 29 19 19 19 9 19 53 46 25 22 21 47 61 340 283 284 305 305 292 293 261 286 296 307 26 6 293 343 322 293 328 345 342 70 120 113 115 115 106 97 85 89 92 90 87 76
56 49 53 52 54 67 82 112 130 125 115 104 93 87 82 75 72 63 52 55 52 34 50 350 14 107 330 325 322 328 323 335 5 10 11 10 357 4 21 27 27 33 39 15 3 12 14 25 44 34 355 347 347 50 134 230 226 240 266 256 268 290 267 261 273 284 19 346 272 345 324 324 353 355 2 52 105 104 105 99 88 83 79 85 89 91 96 79
54 49 58 58 57 60 68 104 154 168 163 159 172 49 59 53 50 42 33 43 64 79 97 302 24 93 323 307 328 347 347 351 17 13 6 0 344 354 13 14 28 47 48 7 321 354 55 62 41 340 282 278 279 235 202 232 228 259 276 242 256 282 283 276 276 287 17 10 294 332 343 8 6 358 18 61 92 93 96 92 84 87 82 83 93 97 107 90
55 53 66 67 59 55 60 72 109 196 209 234 240 48 160 145 82 111 331 38 45 58 77 70 59 65 325 311 342 357 358 346 14 11 4 0 355 13 6 6 32 33 5 279 289 344 58 69 4 286 261 250 270 218 185 277 39 335 271 254 287 293 289 290 284 299 24 12 307 338 34 28 12 9 28 67 87 86 92 95 92 96 95 100 107 106 114 95
56 57 68 69 58 52 55 63 67 94 143 172 132 107 136 138 116 142 148 85 25 21 58 38 45 28 328 4 0 358 13 0 1 2 2 4 18 31 6 31 52 16 335 357 7 5 44 55 285 286 264 181 67 74 81 24 21 318 305 298 307 306 299 291 272 269 43 348 311 43 75 35 17 32 35 54 84 93 94 102 106 106 102 91 84 83 80 55
52 56 64 64 56 51 52 62 71 83 93 112 114 111 121 116 125 141 102 95 57 356 23 30 52 15 349 26 2 359 39 28 352 345 356 3 20 42 70 47 45 7 353 23 60 60 56 299 278 326 50 152 13 18 45 20 356 303 323 312 290 306 329 301 294 305 316 273 274 75 91 89 53 58 54 50 83 104 102 103 103 99 94 73 53 60 61 37
42 49 59 57 55 53 58 65 74 84 91 111 115 117 127 117 126 136 85 86 67 6 13 24 101 43 9 2 351 356 75 43 66 339 356 12 18 17 78 73 48 27 354 37 75 90 177 264 235 51 33 89 37 358 25 12 340 306 274 236 275 303 284 263 290 307 319 301 205 95 80 154 162 120 94 88 94 103 105 98 87 76 75 63 47 53 52 33
25 34 44 49 51 48 70 69 69 92 101 118 123 126 129 112 104 120 95 71 27 338 346 359 65 19 350 341 347 352 127 41 88 359 360 15 2 355 43 71 69 20 306 325 58 66 302 281 56 44 18 50 55 359 7 11 341 320 270 214 252 294 287 281 300 314 331 320 251 81 8 269 171 166 162 158 144 124 126 96 85 74 64 56 43 44 38 27
11 13 18 25 34 32 69 88 72 105 110 118 136 144 145 128 86 94 101 65 24 318 345 357 20 2 347 343 340 346 82 357 332 19 13 12 358 144 50 343 46 17 292 242 29 87 331 346 51 73 42 43 38 359 336 78 8 322 255 208 257 291 294 298 308 316 319 289 297 69 248 255 206 195 198 188 168 164 160 96 93 83 62 53 35 31 24 16
2 355 356 353 0 16 39 167 142 144 132 141 159 163 164 163 119 76 77 43 7 309 350 333 337 5 356 342 344 59 77 315 313 24 16 10 357 146 62 5 1 357 303 81 19 310 310 350 19 48 46 36 28 349 307 124 24 286 246 327 314 306 301 299 302 286 246 283 308 16 151 233 256 203 188 181 167 182 186 101 95 77 54 47 25 15 16 12
1 348 344 339 339 356 40 154 157 153 119 139 160 165 155 159 164 97 82 65 349 333 27 307 326 4 351 349 8 70 98 314 9 360 353 12 12 23 64 39 154 290 334 67 8 292 275 355 347 11 27 21 346 296 278 143 178 267 276 320 298 287 285 290 298 284 272 318 304 301 84 266 268 177 166 186 181 199 191 117 81 67 47 27 8 353 360 7
9 350 343 338 321 342 126 147 146 128 122 131 134 134 138 133 125 61 73 103 324 351 154 320 347 344 344 359 14 44 15 2 65 328 338 16 16 23 84 42 152 201 319 60 32 285 300 263 248 93 52 323 275 280 263 165 227 279 305 310 286 272 270 283 307 299 304 39 263 275 24 292 267 179 169 211 221 211 178 131 83 54 20 352 345 329 342 352
25 13 1 354 301 143 142 131 121 129 123 118 124 133 131 99 68 60 49 129 341 332 276 17 4 336 3 15 357 5 25 9 329 334 349 16 3 16 83 233 77 105 344 18 48 287 317 291 179 111 121 232 276 293 251 190 242 320 352 329 309 294 277 322 359 359 352 303 252 252 271 348 288 234 186 208 208 152 140 130 272 305 307 319 330 321 329 336
39 37 35 46 92 140 153 113 114 133 120 114 131 127 107 42 58 88 77 275 343 335 360 15 348 6 28 38 353 352 16 343 335 9 11 359 4 12 26 7 29 51 5 2 342 320 344 19 150 294 288 109 333 301 289 233 307 6 3 339 333 320 332 14 358 26 6 305 277 256 294 308 274 258 182 150 113 118 125 139 240 294 298 314 320 305 303 310
41 41 45 53 70 86 107 115 121 127 122 126 126 90 76 30 29 93 284 322 345 334 10 335 318 6 10 23 7 339 340 342 357 46 24 13 32 23 33 31 1 6 5 349 334 338 351 286 301 325 333 42 4 320 325 347 13 8 355 9 0 337 346 342 330 348 314 289 281 293 332 309 266 264 157 149 141 134 146 154 170 274 281 294 303 290 286 296
41 40 45 52 65 75 86 109 119 121 137 137 101 52 76 77 38 236 277 332 7 333 8 276 308 342 338 6 4 331 342 352 355 33 29 59 56 23 31 33 20 23 355 327 345 351 332 300 334 354 333 17 33 6 339 330 340 342 338 14 13 2 339 317 314 319 291 283 269 319 345 309 281 286 146 148 150 157 170 170 181 235 250 271 287 277 281 298
40 38 43 49 63 74 84 105 113 123 140 126 76 49 65 79 197 217 291 280 298 339 17 353 316 336 24 38 342 329 17 352 354 31 11 23 41 8 356 8 17 46 53 339 4 4 344 315 324 359 309 348 25 344 285 290 305 312 238 168 8 38 308 296 287 288 298 297 296 326 330 263 280 317 135 142 152 163 170 171 192 261 248 254 278 282 302 317
37 35 38 40 46 60 85 108 121 137 137 92 65 62 79 131 231 169 255 262 294 336 319 332 5 19 10 341 331 359 45 312 1 51 25 27 57 4 345 340 354 29 69 13 327 281 346 270 261 280 261 146 9 288 229 317 308 287 138 89 336 200 197 267 268 246 279 292 289 308 279 226 275 357 130 136 151 157 148 189 299 313 292 290 314 323 328 330
20 30 34 32 27 32 77 117 135 147 133 87 66 58 124 189 213 156 201 278 346 313 312 337 34 42 342 314 336 358 1 284 359 43 33 54 115 352 340 275 317 25 77 101 307 333 10 276 281 320 313 175 209 300 299 57 324 322 24 309 271 186 151 237 291 288 305 294 282 274 286 290 352 300 174 154 165 333 340 325 320 326 334 336 337 335 331 330
343 25 32 26 18 18 61 124 148 143 101 79 81 91 192 192 130 163 203 349 229 102 55 32 17 27 334 313 316 327 345 344 356 25 21 28 88 26 348 287 265 60 116 170 225 221 192 283 291 325 312 262 239 299 297 82 37 359 315 288 280 75 113 125 294 311 318 289 280 292 296 302 314 291 204 192 332 336 336 336 337 344 351 342 332 327 323 325
357 34 40 20 11 13 61 107 131 124 86 68 77 117 169 115 92 189 185 143 222 47 70 93 301 26 19 303 295 307 344 360 353 16 18 338 345 133 95 307 236 131 301 191 152 248 166 292 299 268 280 293 321 37 333 331 27 237 259 297 6 337 332 10 318 302 304 290 289 296 295 290 282 283 346 342 333 335 331 334 341 343 343 331 321 320 319 322
24 60 36 3 1 15 58 111 112 76 73 76 84 129 141 123 237 225 193 155 130 82 74 182 267 17 46 169 265 295 339 6 341 2 35 8 337 129 122 286 258 168 339 156 156 262 163 267 291 282 288 306 340 22 327 316 333 340 339 356 24 325 295 299 282 299 303 295 296 299 300 299 238 239 353 332 326 334 332 333 338 331 326 319 317 320 320 322
46 83 359 348 355 36 69 73 72 47 61 108 151 143 85 151 227 264 235 211 157 108 81 186 166 9 331 311 291 285 339 21 303 344 41 33 328 22 102 172 263 304 335 75 102 315 10 177 256 290 322 340 343 318 285 315 325 349 5 339 335 334 294 290 279 191 309 297 301 302 301 303 214 198 182 293 318 340 344 340 330 321 321 319 319 322 320 318
61 89 330 347 352 188 80 57 56 44 75 94 108 110 63 158 160 327 314 351 330 196 142 150 144 98 160 355 324 249 309 338 325 25 285 306 353 313 253 168 192 303 356 39 29 19 19 191 241 298 330 330 283 244 226 290 271 222 269 287 289 292 325 333 310 290 125 267 281 291 294 298 323 166 180 259 329 350 355 341 331 325 323 322 321 320 317 315
64 95 319 349 14 128 76 54 29 36 91 75 61 115 53 92 117 354 337 23 3 293 65 106 120 110 158 225 281 228 288 306 295 60 238 247 227 233 237 164 163 184 89 28 309 252 148 114 244 278 276 266 273 273 82 155 187 183 228 204 192 321 70 343 297 300 304 274 267 273 282 298 12 167 207 322 340 354 356 338 331 327 325 324 320 316 314 312
77 134 345 354 354 128 69 61 342 23 67 13 352 71 11 78 115 354 12 21 350 13 32 44 126 37 168 216 237 200 280 247 214 245 237 253 257 222 190 158 156 115 89 2 309 280 76 57 325 295 276 264 279 317 69 88 24 358 320 122 60 341 220 211 254 302 305 285 301 295 279 296 352 198 308 329 340 349 343 334 329 325 324 321 317 316 315 312
102 163 5 12 14 173 87 93 136 64 76 96 61 26 339 93 103 29 23 351 356 106 69 32 235 4 245 161 115 210 293 3 245 318 35 209 253 232 151 160 151 89 92 315 339 314 294 14 2 333 328 324 327 341 335 320 352 337 293 313 20 331 322 280 260 333 303 292 329 321 288 294 315 321 321 328 340 341 332 330 328 324 323 320 319 318 313 312
74 104 318 16 38 69 103 145 140 130 145 99 75 19 353 48 57 39 130 25 9 150 126 2 309 72 62 38 30 344 345 21 329 339 24 272 261 324 31 167 128 85 241 275 47 47 283 264 60 357 321 319 320 321 319 323 336 325 299 317 347 347 338 330 324 341 306 305 320 303 286 298 314 321 324 331 342 334 327 328 326 322 319 319 319 315 313 320
79 55 320 357 28 53 74 88 95 109 145 123 81 3 38 73 307 283 138 103 46 147 89 15 345 47 35 29 21 343 334 10 356 356 13 286 272 304 327 167 119 156 213 36 50 80 93 281 224 196 219 255 275 284 297 314 316 306 307 319 336 360 16 19 9 327 300 305 304 290 296 307 314 321 327 338 340 330 326 328 326 321 319 319 317 314 319 330
96 87 79 359 13 38 36 17 47 84 139 133 106 39 112 71 318 313 131 139 126 100 72 44 40 50 24 19 28 320 302 346 1 351 324 273 267 295 304 137 71 15 127 61 22 80 80 310 258 209 223 245 267 281 293 306 296 291 306 322 331 348 21 25 345 297 306 313 304 309 315 312 312 322 333 338 335 328 326 327 324 321 321 320 316 318 327 335
74 133 166 123 95 83 45 37 75 82 71 89 110 111 89 44 19 73 266 339 21 37 78 48 28 39 21 355 51 333 321 347 348 309 342 324 309 330 341 25 35 8 91 41 354 96 110 265 252 219 265 270 272 280 289 294 275 286 318 336 329 341 1 351 304 293 312 312 300 311 316 311 313 327 337 336 332 327 324 323 320 322 324 320 319 326 335 336
82 113 29 20 95 142 135 72 97 87 63 64 86 82 115 116 99 192 272 5 6 354 49 72 350 355 336 229 113 103 312 343 328 297 281 338 323 345 352 342 1 9 66 48 347 103 134 263 264 274 290 288 285 280 283 285 284 303 342 4 337 333 317 302 286 286 298 297 299 308 311 309 316 331 333 330 326 321 319 320 323 328 325 320 325 337 339 335
144 146 141 65 73 85 47 42 76 82 50 42 75 76 129 141 152 206 261 60 40 340 26 63 315 329 4 142 128 126 246 211 243 261 193 65 329 305 251 260 271 346 17 70 332 354 38 301 321 42 312 298 296 290 292 301 302 310 330 343 347 341 324 316 310 304 307 307 308 312 310 308 319 333 327 323 320 321 323 326 331 329 322 326 341 342 336 337
108 130 140 113 74 1 15 31 65 90 47 11 94 151 165 164 176 154 98 33 152 175 17 88 287 324 38 97 130 261 264 214 220 235 196 167 241 221 224 237 219 331 346 34 333 353 34 316 337 42 345 299 306 332 326 316 311 318 332 332 341 341 330 323 319 320 323 318 316 319 316 314 328 332 325 322 323 325 328 334 332 324 326 343 348 337 337 348
102 101 117 105 81 357 16 23 29 79 83 342 119 156 151 188 192 116 87 332 82 96 170 164 163 160 30 32 265 258 256 224 216 228 202 171 184 199 227 222 153 229 272 117 3 343 85 353 326 16 331 298 314 332 320 313 326 342 309 267 318 328 323 316 319 326 325 320 320 327 327 325 328 327 324 325 326 327 334 337 326 322 341 353 342 336 347 359